Notices

What's New in latest Release from April 7th, 2021:

- Updated Glossary, including Speed of Maximum Gust, and Total Hourly Precipitation

- Updated national and regional climate services offices contacts and prices information

- Addition of station inventory lists for 1981-2010, 1971-2000, and 1961-1990 Normals.

If you haven't already, please take our survey and provide feedback about our website: https://eccc.sondage-survey.ca/f/LanguageSelection.aspx?s=442ca660-fcf1-47c0-95a9-59707d6fd709

Hourly Data Report for May 30, 2020

MIRAMICHI RCS
NEW BRUNSWICK
Current Station Operator: ECCC - MSC

47°00'34.000" N
65°27'54.000" W
33.00 m
8100989
71744
ACQ

Download Data

Hourly Data (May 2020)
Hourly Data Report for May 30, 2020
TIME
LST
Temp Definition
°C
Dew Point Definition
°C
Rel Hum Definition
%
Precip. Amount Definition
mm

Wind Dir Definition
10's deg

Wind Spd Definition
km/h
Visibility Definition
km
Stn Press Definition
kPa
Hmdx Definition


Wind Chill Definition


Weather Definition


00:00 18.8 LegendMM LegendMM LegendMM 22 23   100.18     LegendNANA
01:00 18.7 LegendMM LegendMM LegendMM 21 22   100.11     LegendNANA
02:00 18.7 LegendMM LegendMM LegendMM 21 29   100.05     LegendNANA
03:00 18.4 LegendMM LegendMM LegendMM 20 27   99.99     LegendNANA
04:00 18.5 LegendMM LegendMM LegendMM 21 25   99.95     LegendNANA
05:00 18.0 LegendMM LegendMM LegendMM 21 30   100.00     LegendNANA
06:00 17.9 LegendMM LegendMM LegendMM 20 22   100.02     LegendNANA
07:00 19.0 LegendMM LegendMM LegendMM 21 21   99.96     LegendNANA
08:00 19.7 LegendMM LegendMM LegendMM 21 26   99.92     LegendNANA
09:00 19.0 LegendMM LegendMM LegendMM 21 28   99.91     LegendNANA
10:00 20.9 19.8 94 LegendMM 20 24   99.88 28   LegendNANA
11:00 20.9 20.3 96 LegendMM 21 30   99.80 29   LegendNANA
12:00 22.6 20.0 85 LegendMM 21 31   99.71 30   LegendNANA
13:00 25.1 20.0 74 LegendMM 21 37   99.69 33   LegendNANA
14:00 17.9 LegendMM LegendMM LegendMM 24 25   99.85     LegendNANA
15:00 18.9 18.9 100 LegendMM 24 12   99.82     LegendNANA
16:00 21.8 21.3 97 LegendMM 25 13   99.87 30   LegendNANA
17:00 23.6 19.2 76 LegendMM 27 20   99.93 31   LegendNANA
18:00 23.2 16.8 67 LegendMM 27 19   99.99 28   LegendNANA
19:00 21.5 14.5 64 LegendMM 30 16   100.10 25   LegendNANA
20:00 19.0 12.6 66 LegendMM 31 7   100.21     LegendNANA
21:00 16.1 13.6 86 LegendMM 29 7   100.30     LegendNANA
22:00 15.5 11.4 76 LegendMM 28 7   100.31     LegendNANA
23:00 15.5 10.7 73 LegendMM 27 6   100.36     LegendNANA

Notes on Data Quality.

Legend

  • E = Estimated
  • M = Missing
  • NA = Not Available*
  • [empty] = Indicates an unobserved value
Date modified: